Probability
0 0 0 0 0 0 0 0 0 0 0 0 0 0 0 0 0 0 0 0 0 0 0 0 0 0 0 0 0 0 0 0 0 6 10 13 6 19
0 0 0 0 0 0 0 0 0 0 0 0 0 0 0 0 0 0 0 0 0 0 0 0 0 0 0 0 0 0 0 0 0 0 0 0 0 0
0 0 0 0 0 0 0 0 0 0 0 0 0 0 0 0 0 0 0 0 0 0 0 0 0 0 0 0 0 0 0 0 0 0 0 0 0 0
0 0 0 0 0 0 0 0 0 0 0 0 0 0 0 0 0 0 0 0 0 0 0 0 0 0 0 0 0 0 0 0 0 0 0 0 0 0
0 0 0 0 0 0 0 0 0 0 0 0 0 0 0 0 0 0 0 0 0 0 0 0 0 0 0 0 0 0 0 0 0 0 0 0 0 0
0 0 0 0 0 0 0 0 0 0 0 0 0 0 0 0 0 0 0 0 0 0 0 0 0 0 0 0 0 0 0 0 0 0 0 0 0 0
0 0 0 0 0 0 0 0 0 0 0 0 0 0 0 0 0 0 0 0 0 0 0 0 0 0 0 0 0 0 0 0 0 0 0 0 0 0
0 0 0 0 0 0 0 0 0 0 0 0 0 0 0 0 0 0 0 0 0 0 0 0 0 0 0 0 0 0 0 0 0 0 0 0 0 0
0 0 0 0 0 0 0 0 0 0 0 0 0 0 0 0 0 0 0 0 0 0 0 0 0 0 0 0 0 0 0 0 0 0 0 0 0 0
0 0 0 0 0 0 0 0 0 0 0 0 0 0 0 0 0 0 0 0 0 0 0 0 0 0 0 0 0 0 0 0 0 0 0 0 0 0
0 0 0 0 0 0 0 0 0 0 0 0 0 0 0 0 0 0 0 0 0 0 0 0 0 0 0 0 0 0 0 0 0 0 0 0 0 0
0 0 0 0 0 0 0 0 0 0 0 0 0 0 0 0 0 0 0 0 0 0 0 0 0 0 0 0 0 0 0 0 0 0 0 0 0 0
0 0 0 0 0 0 0 0 0 0 0 0 0 0 0 0 0 0 0 0 0 0 0 0 0 0 0 0 0 0 0 0 0 0 0 0 0 0
0 0 0 0 0 0 0 0 0 0 0 0 0 0 0 0 0 0 0 0 0 0 0 0 0 0 0 0 0 0 0 0 0 0 0 0 0 0
0 0 0 0 0 0 0 0 0 0 0 0 0 0 0 0 0 0 0 0 0 0 0 0 0 0 0 0 0 0 0 0 0 0 0 0 0 0
0 0 0 0 0 0 0 0 0 0 0 0 0 0 0 0 0 0 0 0 0 0 0 0 0 0 0 0 0 0 0 0 0 0 0 0 0 0
0 0 0 0 0 0 0 0 0 0 0 0 0 0 0 0 0 0 0 0 0 0 0 0 0 0 0 0 0 0 0 0 0 0 0 0 0 0
0 0 0 0 0 0 0 0 0 0 0 0 0 0 0 0 0 0 0 0 0 0 0 0 0 0 0 0 0 0 0 0 0 0 0 0 0 0
0 0 0 0 0 0 0 0 0 0 0 0 0 0 0 0 0 0 0 0 0 0 0 0 0 0 0 0 0 0 0 0 0 0 0 0 0 0
0 0 0 0 0 0 0 0 0 0 0 0 0 0 0 0 0 0 0 0 0 0 0 0 0 0 0 0 0 0 0 0 0 0 0 0 0 0
0 0 0 0 0 0 0 0 0 0 0 0 0 0 0 0 0 0 0 0 0 0 0 0 0 0 0 0 0 0 0 0 0 0 0 0 0 0
0 0 0 0 0 0 0 0 0 0 0 0 0 0 0 0 0 0 0 0 0 0 0 0 0 0 0 0 0 0 0 0 0 0 0 0 0 0
0 0 0 0 0 0 0 0 0 0 0 0 0 0 0 0 0 0 0 0 0 0 0 0 0 0 0 0 0 0 0 0 0 0 0 0 0 0
Height
5754 5757 5760 5763 5766 5770 5773 5776 5779 5781 5782 5783 5784 5786 5786 5787 5787 5787 5787 5787 5788 5789 5790 5791 5792 5794 5795 5798 5801 5804 5806 5810 5813 5816 5819 5823 5826 5829
5741 5744 5748 5751 5755 5758 5762 5766 5769 5772 5774 5776 5777 5778 5780 5780 5781 5781 5782 5782 5782 5783 5783 5784 5786 5787 5789 5791 5794 5797 5800 5803 5806 5809 5812 5815 5818 5821
5725 5730 5734 5738 5742 5746 5750 5754 5758 5762 5765 5767 5769 5771 5772 5774 5774 5775 5775 5776 5776 5777 5777 5778 5780 5781 5783 5785 5787 5790 5793 5796 5799 5802 5805 5808 5811 5814
5709 5713 5718 5723 5728 5732 5737 5742 5746 5751 5755 5758 5761 5763 5765 5766 5768 5769 5769 5770 5770 5771 5772 5773 5774 5775 5777 5779 5781 5783 5786 5789 5792 5795 5798 5801 5804 5807
5690 5695 5701 5707 5713 5718 5723 5728 5734 5739 5743 5747 5751 5754 5757 5759 5761 5762 5763 5764 5764 5765 5766 5767 5768 5770 5771 5773 5775 5777 5780 5783 5786 5788 5791 5794 5797 5799
5670 5676 5682 5689 5696 5703 5709 5715 5720 5726 5731 5737 5741 5745 5748 5751 5753 5754 5756 5757 5758 5759 5760 5761 5762 5764 5766 5768 5770 5772 5774 5777 5779 5782 5785 5787 5790 5792
5649 5656 5663 5670 5678 5686 5693 5700 5706 5713 5719 5725 5731 5735 5739 5742 5745 5747 5749 5750 5751 5753 5754 5755 5756 5758 5760 5762 5764 5766 5768 5771 5773 5776 5778 5781 5783 5786
5629 5636 5643 5652 5660 5669 5677 5685 5693 5700 5707 5714 5720 5725 5730 5733 5736 5739 5741 5743 5745 5747 5748 5749 5750 5752 5754 5756 5758 5760 5763 5765 5767 5770 5772 5774 5777 5779
5609 5616 5624 5633 5641 5651 5660 5669 5678 5686 5695 5702 5709 5715 5720 5724 5728 5731 5733 5736 5738 5740 5741 5743 5744 5746 5748 5750 5752 5754 5757 5759 5761 5764 5766 5768 5771 5773
5592 5598 5606 5615 5624 5633 5643 5653 5663 5673 5682 5690 5698 5704 5709 5714 5719 5723 5725 5728 5731 5733 5735 5737 5739 5740 5743 5745 5747 5749 5751 5753 5756 5758 5760 5762 5765 5767
5577 5582 5589 5598 5607 5617 5628 5639 5649 5659 5668 5678 5686 5693 5699 5705 5710 5714 5718 5721 5724 5727 5729 5731 5733 5735 5737 5739 5741 5744 5746 5748 5750 5752 5755 5757 5759 5761
5565 5569 5576 5583 5591 5600 5612 5624 5635 5646 5656 5666 5674 5682 5689 5695 5701 5706 5711 5714 5717 5720 5723 5725 5727 5729 5731 5734 5736 5738 5741 5743 5745 5747 5749 5751 5753 5755
5554 5558 5563 5569 5577 5587 5598 5610 5621 5632 5642 5653 5663 5671 5679 5686 5692 5698 5703 5707 5711 5714 5717 5719 5721 5724 5727 5729 5731 5733 5736 5738 5740 5742 5744 5746 5747 5749
5544 5547 5552 5558 5566 5575 5586 5597 5608 5619 5631 5642 5652 5662 5671 5678 5685 5690 5695 5700 5704 5708 5710 5713 5716 5718 5721 5724 5726 5728 5730 5732 5734 5736 5738 5740 5742 5743
5535 5538 5542 5548 5555 5564 5574 5585 5596 5608 5620 5632 5643 5654 5662 5670 5676 5682 5687 5692 5696 5700 5704 5707 5710 5713 5716 5718 5721 5723 5725 5727 5729 5731 5733 5734 5736 5738
5526 5529 5533 5538 5545 5554 5564 5575 5586 5599 5611 5623 5634 5645 5654 5661 5668 5675 5681 5686 5690 5694 5697 5701 5704 5707 5710 5712 5715 5717 5719 5721 5723 5725 5727 5729 5731 5733
5518 5521 5525 5530 5537 5545 5555 5566 5578 5591 5603 5615 5626 5636 5646 5654 5662 5668 5674 5680 5684 5688 5692 5695 5698 5701 5705 5707 5709 5711 5713 5715 5718 5720 5722 5724 5726 5727
5511 5514 5518 5523 5530 5539 5549 5560 5572 5584 5597 5609 5620 5630 5639 5648 5655 5662 5668 5673 5678 5682 5686 5690 5693 5696 5699 5701 5704 5706 5708 5710 5712 5714 5716 5718 5720 5722
5506 5508 5513 5518 5525 5534 5544 5555 5567 5580 5592 5604 5615 5625 5634 5642 5650 5656 5662 5668 5672 5677 5681 5684 5688 5691 5693 5696 5698 5700 5703 5705 5707 5709 5711 5713 5714 5716
5502 5505 5509 5515 5522 5532 5542 5553 5565 5577 5589 5601 5611 5621 5630 5638 5645 5651 5657 5662 5667 5671 5675 5679 5682 5685 5688 5691 5693 5695 5697 5699 5701 5703 5705 5706 5708 5709
5500 5503 5508 5514 5523 5532 5542 5553 5565 5577 5588 5599 5608 5618 5626 5634 5640 5647 5652 5658 5662 5667 5670 5674 5677 5680 5683 5686 5688 5689 5692 5693 5695 5697 5699 5700 5701 5701
5500 5505 5511 5518 5526 5534 5545 5555 5567 5578 5588 5598 5607 5615 5623 5630 5637 5643 5648 5653 5658 5662 5665 5669 5672 5675 5678 5680 5682 5684 5686 5688 5690 5691 5692 5693 5693 5693
5505 5510 5515 5523 5531 5541 5550 5560 5571 5580 5589 5598 5606 5614 5621 5628 5634 5640 5645 5649 5653 5657 5661 5664 5668 5670 5673 5675 5677 5679 5681 5682 5683 5684 5685 5685 5685 5684
Wind_Speed
43 43 41 40 39 38 36 34 32 30 28 26 24 23 21 20 20 20 20 20 20 21 21 22 23 25 26 27 29 30 30 31 32 33 33 33 34 33
48 47 45 44 43 42 40 37 35 33 30 29 27 25 23 22 20 20 20 21 20 20 20 21 23 25 26 27 29 29 30 30 31 32 33 33 33 32
53 51 49 48 47 45 43 41 38 36 33 31 30 27 26 24 22 21 21 21 20 20 20 21 22 23 24 26 28 29 29 29 29 30 31 32 32 32
58 56 54 52 50 48 46 44 41 39 36 33 32 30 28 26 24 22 22 21 21 21 20 21 22 22 23 24 25 27 28 28 28 29 30 31 32 32
61 60 58 56 53 52 50 47 44 42 39 36 34 32 29 27 25 24 22 22 22 21 22 22 22 22 23 24 24 24 26 27 28 28 28 29 30 31
64 63 61 59 57 54 52 50 48 45 42 38 35 33 31 28 26 25 23 23 22 22 22 22 22 22 23 24 24 24 25 27 27 27 28 28 29 29
63 63 63 62 60 57 55 52 50 47 44 40 37 34 31 29 27 26 24 23 23 22 22 23 23 23 24 24 25 25 25 26 26 27 28 28 28 29
62 63 62 62 61 59 57 55 52 48 46 43 39 36 33 31 29 27 25 24 24 23 23 23 23 23 24 24 25 24 25 25 25 26 26 26 27 27
58 60 61 61 60 60 59 57 53 51 48 44 41 38 35 32 30 28 26 24 24 24 24 23 23 23 23 24 24 23 24 24 24 24 24 25 26 26
50 54 57 58 59 59 59 57 55 52 49 46 42 39 37 34 32 29 27 25 24 24 23 23 23 23 24 24 23 23 24 24 24 24 24 25 25 26
41 45 49 52 55 57 57 56 54 53 51 47 43 40 38 35 33 30 28 26 25 25 24 24 23 22 23 23 23 22 23 23 22 23 23 23 23 24
35 38 43 46 49 53 54 54 53 52 51 49 45 42 39 36 34 31 29 27 26 25 24 24 23 23 23 23 23 23 23 22 22 22 22 22 23 23
31 34 37 42 46 49 51 52 52 52 51 49 47 43 40 37 35 32 30 28 26 25 24 24 24 23 23 22 22 22 22 22 22 23 23 23 23 23
29 31 34 38 42 45 48 49 50 51 51 50 48 44 41 38 35 32 30 29 27 25 24 24 24 24 23 23 22 22 22 22 23 22 22 22 22 22
27 30 32 35 38 42 45 47 49 50 49 49 47 43 41 38 35 33 31 29 28 27 26 25 25 25 24 23 23 23 23 23 23 22 22 22 22 22
25 27 30 34 36 40 44 46 46 47 48 48 46 43 41 39 35 34 32 30 29 27 27 26 26 25 24 24 24 23 23 23 22 22 22 22 22 22
23 25 27 31 34 38 42 43 45 47 46 46 45 43 41 38 36 34 32 31 29 28 28 27 26 25 25 24 23 24 23 22 22 22 21 21 21 21
21 23 26 28 31 36 40 42 45 46 46 45 44 41 39 37 34 33 32 31 29 28 28 26 25 25 24 23 23 23 23 23 22 22 22 22 22 22
17 20 23 27 31 36 38 41 44 44 44 44 42 40 38 36 34 33 32 30 29 28 27 26 25 24 24 23 22 22 22 22 22 23 23 23 23 24
15 19 23 26 31 35 39 42 43 43 43 42 39 38 36 35 34 33 31 30 28 27 26 25 25 24 24 23 23 23 23 23 23 23 23 23 24 25
16 20 23 26 32 36 41 42 42 41 40 38 36 35 34 34 33 31 30 29 28 27 26 25 24 24 24 23 23 22 22 22 23 23 24 25 26 27
19 21 23 28 32 36 38 40 40 39 38 36 35 34 33 32 31 30 29 28 28 27 27 25 23 23 23 23 22 22 22 22 23 24 25 27 28 29
20 22 26 31 33 36 38 38 39 38 36 35 33 32 32 31 30 29 28 28 27 25 24 23 22 22 21 21 21 21 22 23 24 26 27 29 30 32
Wind_Direction
251 250 250 249 248 248 247 247 249 251 255 259 263 266 267 269 269 270 271 270 267 264 261 257 254 251 248 246 243 242 242 241 241 242 242 243 245 246
250 249 249 249 249 248 247 247 247 249 251 256 259 262 265 266 268 269 270 271 269 266 262 260 255 251 249 246 244 243 242 241 242 242 242 243 244 244
248 247 247 246 247 247 246 247 247 247 248 251 255 257 261 264 267 268 268 270 267 264 261 259 257 253 250 247 245 244 242 241 240 240 240 240 241 242
246 246 245 245 244 245 245 245 246 246 246 247 250 253 256 260 263 265 266 266 266 264 260 258 256 253 250 248 247 244 240 240 239 240 240 239 240 240
246 244 244 243 243 243 243 243 244 244 244 245 246 250 252 255 258 262 263 263 263 261 258 256 254 253 251 249 248 244 240 239 240 241 242 241 240 240
246 244 242 241 241 241 241 241 242 242 242 242 243 245 248 250 254 258 259 259 259 258 257 255 253 251 250 249 247 244 243 241 241 240 241 241 241 241
245 244 242 241 239 239 238 239 239 239 239 239 240 242 244 247 249 252 253 255 256 255 257 255 253 251 250 248 245 243 241 241 242 241 242 242 241 241
245 243 241 240 239 237 236 236 236 236 236 237 237 239 241 243 246 248 249 252 253 254 255 254 252 250 249 247 244 242 240 241 243 242 242 242 241 241
245 243 241 239 237 236 235 234 233 233 234 234 235 236 237 239 241 244 245 248 251 253 253 252 251 248 246 244 243 242 241 241 242 241 241 241 240 241
245 242 240 238 236 235 233 232 231 231 231 231 231 232 233 235 237 240 243 246 249 250 250 250 249 247 243 242 242 241 242 241 241 242 241 241 241 241
244 241 238 236 234 232 231 230 229 228 227 227 227 228 229 232 234 237 241 243 244 246 247 247 247 246 243 240 240 240 240 239 239 240 240 241 241 240
243 240 237 234 231 229 227 226 225 224 224 224 224 225 226 228 230 234 237 239 241 244 245 244 243 243 242 240 239 239 239 240 240 240 240 241 241 240
243 239 235 232 229 226 224 222 222 221 221 220 220 221 222 224 227 231 234 235 238 241 240 238 238 239 239 238 238 238 239 241 242 241 241 242 241 240
244 239 234 229 225 222 220 218 218 217 217 217 217 218 219 221 224 228 230 233 235 236 235 234 234 234 235 237 239 240 240 241 243 242 241 241 240 240
244 238 232 227 222 218 215 214 213 212 213 214 214 215 216 218 221 224 226 229 231 231 231 232 232 234 236 236 239 241 241 242 243 242 241 240 238 238
242 235 230 224 220 214 210 208 207 206 207 209 210 212 213 216 219 221 223 226 228 228 228 230 232 234 236 238 240 241 241 242 242 241 241 238 238 238
241 234 227 221 215 210 205 202 200 200 202 203 206 209 211 213 216 217 220 224 226 226 227 230 232 234 236 239 240 239 238 238 238 238 238 237 237 239
239 229 220 213 208 204 199 197 195 197 198 198 201 205 208 210 212 214 218 221 223 225 225 227 230 231 233 236 237 237 235 237 239 238 237 238 240 242
227 219 210 204 200 195 192 190 190 192 193 195 198 201 204 207 209 212 215 218 221 221 223 226 228 230 232 233 234 234 235 236 238 239 239 240 242 245
209 202 197 196 190 187 184 183 185 187 189 192 195 198 201 205 207 209 213 216 217 219 222 225 228 229 231 235 237 236 236 237 237 239 240 242 246 249
193 187 182 179 178 177 175 176 179 181 184 186 189 194 198 203 205 208 210 213 215 219 223 226 228 230 233 236 237 235 236 238 239 241 245 248 252 256
175 171 167 165 168 169 172 174 176 178 181 184 188 192 195 198 201 205 208 212 217 221 223 226 228 230 231 232 234 236 237 239 244 248 252 255 258 261
154 154 152 154 159 162 165 169 173 176 180 183 187 190 194 197 201 207 211 215 218 221 222 223 225 228 231 234 237 239 242 246 250 254 258 261 264 267